Terug naar catalogus

ONEWEB-0718

ActiefCommunicatiePO
NORAD 56081·PAYLOAD·🇬🇧 United Kingdom

Gelanceerd Mar 26, 2023 vanaf Satish Dhawan Space Centre

Loading…

Volgende Passages (komende 24 uur)

TLE

VersSource: CelesTrak SupGP

Epoch: Sep 14, 2026, 17:14 UTC

1 56081C 23043AM  26257.71824491  .00001191  00000+0  31668-2 0  2574
2 56081  87.8991 241.3507 0001550  86.7777 306.8910 13.15548817    10

Volg ONEWEB-0718 in realtime met AllMySat

Download on the App Store